Wind_Speed
22 22 21 21 21 21 22 22 23 22 22 21 20 19 21 22 22 23 23 20 29 37 38 33 33 37 35 32 34 30 32 24 22 22 18 21 17 22 26 32 30 27 11 12 12 11 17 4 6 7 13 20 20 20
22 21 21 21 21 22 22 22 23 22 21 21 19 20 22 22 23 24 29 23 25 32 35 26 25 23 22 29 32 33 36 33 26 15 11 7 16 19 16 10 14 25 29 19 17 20 38 33 16 14 13 13 10 12
20 21 20 21 21 22 22 22 22 21 21 20 19 21 21 22 24 25 26 18 19 25 32 30 21 14 17 22 26 30 21 20 26 22 29 27 21 17 18 17 19 20 17 25 22 41 39 29 27 25 23 22 22 21
19 20 20 21 22 22 22 21 20 20 20 19 20 21 22 23 23 23 22 16 15 21 30 17 15 12 9 15 20 17 15 13 14 18 25 24 26 21 25 25 27 24 22 24 27 31 29 31 29 26 25 25 31 30
18 19 19 20 20 20 20 19 19 19 19 19 20 22 22 22 21 21 19 14 14 19 25 32 30 18 25 28 26 23 21 19 23 25 29 30 30 28 35 35 39 29 29 26 32 25 24 30 25 19 23 28 26 30
18 18 18 18 18 18 18 19 19 18 18 19 20 22 21 21 20 20 15 10 12 14 25 32 29 10 14 17 14 14 20 23 26 30 33 34 26 22 25 27 20 16 19 25 27 28 29 28 26 23 25 28 29 32
17 16 17 17 17 17 17 18 18 17 17 19 20 20 20 19 18 17 12 8 9 17 21 16 18 6 3 5 10 14 12 15 20 25 31 29 29 26 35 38 27 21 22 22 22 24 27 26 31 28 26 30 34 38
17 16 16 16 17 17 17 18 17 16 17 18 19 19 18 18 18 16 8 13 17 22 22 13 15 14 13 14 16 12 11 13 20 20 25 26 24 23 26 26 16 14 18 19 18 19 23 26 28 27 28 31 35 40
18 17 17 16 16 16 17 18 17 16 16 18 17 18 17 17 17 15 12 13 15 20 19 14 17 18 18 11 11 15 15 16 17 21 22 16 21 18 20 13 15 10 10 17 25 32 37 42 44 42 42 42 45 48
20 19 18 17 16 16 16 17 17 16 15 17 16 15 14 9 9 10 12 13 20 26 32 38 29 32 21 14 13 8 10 12 10 18 11 21 26 23 23 19 22 8 16 25 31 35 38 39 41 42 44 45 46 47
21 20 19 18 17 17 17 17 18 16 13 14 12 11 11 13 14 10 9 9 8 13 22 25 26 28 20 25 22 13 6 7 9 10 11 7 6 7 15 20 18 19 26 33 34 36 37 40 44 49 50 49 48 48
22 21 20 19 18 18 17 17 17 16 14 12 14 17 17 12 7 8 8 9 10 10 11 11 10 11 14 14 13 8 8 5 7 7 6 4 8 13 14 12 16 27 29 30 31 33 32 40 46 48 48 47 43 41
22 21 20 19 19 18 18 17 17 15 13 12 8 9 6 6 11 9 9 10 9 10 13 10 10 8 7 7 7 7 6 8 8 6 4 5 4 6 15 19 20 23 24 30 27 27 33 40 45 39 37 35 34 31
22 21 19 19 19 18 18 18 16 14 11 8 7 8 8 9 9 13 14 16 20 17 8 8 8 6 7 7 7 5 7 7 5 6 5 4 6 15 21 23 24 24 29 26 25 28 32 43 39 28 26 27 29 28
21 19 18 20 19 18 18 19 16 13 11 10 8 9 15 13 15 14 16 19 18 16 16 14 16 11 10 8 6 6 5 6 6 4 4 9 15 19 22 22 24 23 25 24 23 26 31 30 27 22 18 17 18 23
22 17 19 21 20 18 17 16 12 8 14 13 16 17 12 15 17 18 21 20 17 20 17 14 11 8 10 7 7 9 7 6 1 8 11 16 18 19 20 20 22 22 22 22 23 22 25 24 23 26 23 20 17 15
23 20 20 22 20 19 17 14 10 16 11 14 22 22 19 23 26 21 19 18 18 16 14 10 8 9 6 7 8 8 8 9 8 11 15 17 18 18 17 15 18 20 21 20 19 19 19 18 21 23 25 25 24 25
24 22 22 23 23 20 18 15 17 18 22 28 26 24 22 21 21 19 19 19 20 18 18 14 14 13 7 8 11 10 8 11 19 18 18 18 17 16 15 15 17 21 21 21 17 16 15 15 19 23 22 20 22 22
24 24 22 21 20 19 17 17 23 25 23 22 23 22 21 23 23 23 20 20 20 21 22 23 14 13 17 21 19 18 14 16 18 18 17 19 19 16 16 16 18 19 18 19 17 11 10 13 20 21 20 16 15 13
26 24 21 18 19 24 24 25 21 22 17 15 15 18 20 22 22 24 23 22 23 23 23 23 21 24 26 21 18 21 24 24 24 23 21 20 19 19 19 19 19 18 16 15 16 12 11 14 14 16 16 12 9 5
27 23 18 13 15 30 26 17 19 19 18 21 20 16 19 20 21 23 22 23 24 26 21 21 28 28 26 26 30 30 30 28 27 27 25 21 19 20 19 18 17 17 16 15 14 14 12 13 11 12 14 14 8 4
22 22 18 17 20 23 32 34 24 15 19 21 19 14 17 19 20 22 18 20 22 20 25 28 30 27 27 28 27 26 26 26 26 25 23 22 20 18 19 18 17 15 15 12 13 13 12 10 9 8 7 10 12 8
18 18 19 20 23 23 28 25 27 27 27 22 15 17 21 20 19 17 18 19 21 25 23 25 24 24 26 25 26 27 23 22 23 22 19 19 19 18 17 18 18 15 13 12 11 12 11 9 8 5 5 5 6 8
17 18 20 17 22 22 18 23 21 19 24 22 20 21 18 18 21 20 19 19 25 21 22 24 23 20 20 21 21 19 18 18 19 18 16 16 17 17 17 18 16 16 14 12 11 11 11 9 8 7 6 5 3 2
23 20 18 21 19 19 25 20 20 22 23 20 20 20 14 18 18 17 16 20 23 20 19 18 19 20 20 21 19 17 17 17 18 18 17 17 16 15 16 17 17 16 16 13 12 12 11 11 9 8 7 7 6 3
24 19 15 19 21 20 18 18 23 23 20 20 16 15 12 11 11 9 14 21 20 18 15 17 17 17 18 18 18 15 13 15 17 17 16 18 19 18 17 15 16 17 17 16 15 14 13 12 11 10 10 10 8 6
20 13 23 26 20 17 17 17 15 15 17 21 15 17 16 10 9 15 18 20 21 18 15 13 14 15 14 10 12 12 13 13 14 14 14 14 14 15 17 17 15 15 16 18 17 16 16 15 12 11 11 10 13 11
26 20 23 20 21 17 16 16 13 15 16 16 12 10 8 9 13 20 18 15 12 12 12 12 11 11 10 10 11 11 11 12 12 12 12 12 11 12 13 14 16 15 14 14 15 18 17 17 17 15 13 12 11 12
19 24 17 21 18 18 18 15 16 17 16 16 15 18 23 24 20 18 16 12 12 12 12 11 10 9 8 8 9 9 10 10 10 10 10 11 11 10 10 11 12 14 14 13 12 13 17 18 16 16 16 15 14 13
21 16 20 21 21 17 15 17 19 19 19 19 19 22 21 19 19 20 17 15 15 14 12 11 10 9 8 8 8 9 9 10 10 11 11 11 11 10 10 10 10 11 12 13 12 12 12 15 18 16 16 17 16 15
18 19 15 13 16 18 15 16 17 16 17 17 19 22 22 17 18 18 17 16 15 13 13 13 12 11 9 8 8 9 9 9 10 10 10 11 11 12 12 12 12 11 11 11 12 13 12 11 14 18 17 17 15 14
17 17 16 17 17 14 13 14 15 16 16 16 16 15 14 15 16 15 15 14 15 15 15 15 14 12 10 9 9 10 10 10 10 10 10 11 12 13 14 14 14 13 12 12 11 11 14 13 12 14 19 18 17 14
15 14 14 12 11 12 12 12 13 13 14 14 14 14 14 15 15 12 13 16 17 16 16 16 14 14 12 11 11 11 11 11 11 11 12 13 13 13 13 13 12 12 11 10 10 9 10 12 15 14 13 19 19 16
Wind_Direction
286 284 283 282 282 285 287 292 296 297 299 299 295 291 291 288 281 274 274 260 260 267 271 265 265 267 271 267 272 279 289 287 288 262 247 237 252 248 257 258 260 259 245 236 232 233 256 305 42 231 273 266 267 271
287 287 284 282 282 284 286 290 294 294 297 297 294 293 293 289 288 284 280 277 261 262 269 266 266 269 257 275 274 273 265 261 263 286 273 229 265 287 277 277 256 258 237 230 221 250 276 286 298 288 285 289 264 266
288 287 285 284 283 283 285 289 291 292 294 294 294 296 291 292 292 288 284 277 267 267 272 273 277 279 261 269 275 270 275 280 266 263 280 280 278 285 286 285 285 282 279 248 251 256 260 271 281 281 278 271 265 271
286 285 285 284 284 285 287 287 288 291 292 293 296 296 293 295 293 290 284 275 256 270 273 301 283 276 261 256 274 263 292 267 269 266 261 279 277 275 272 276 273 275 281 277 275 276 277 264 272 270 267 272 273 277
289 287 286 285 286 286 287 286 288 290 290 293 297 298 297 295 295 292 287 275 254 246 267 290 299 284 269 275 278 268 274 270 266 270 265 270 280 279 277 278 272 272 267 269 273 283 283 284 285 278 272 263 255 258
287 287 288 288 287 287 287 287 289 291 290 294 296 297 296 294 294 288 292 271 274 264 262 282 311 273 265 286 273 267 265 259 250 258 260 267 270 277 263 267 276 279 278 266 270 269 267 268 278 272 270 270 267 269
285 288 289 289 288 288 289 290 290 290 291 294 297 296 294 292 287 278 271 271 231 279 297 301 308 305 294 257 258 288 267 266 262 262 262 269 271 268 265 265 275 271 276 280 278 278 280 279 274 272 267 267 265 261
284 284 285 287 288 289 290 289 290 291 291 293 297 295 291 288 282 285 274 254 262 272 278 266 266 273 276 280 279 271 277 282 277 278 277 269 269 256 260 276 275 274 272 268 266 265 272 277 276 280 276 268 266 265
279 281 283 284 287 291 292 292 292 291 290 291 295 291 288 284 282 289 273 265 254 252 252 255 260 277 269 259 284 287 284 280 286 270 267 261 254 238 257 268 267 274 287 277 272 276 275 274 276 278 278 274 264 264
275 277 279 282 286 288 290 292 293 293 289 290 293 290 293 300 284 288 288 264 255 252 247 251 255 256 261 271 283 262 274 258 257 270 271 239 261 269 259 265 290 264 287 296 295 294 294 291 294 290 286 284 281 278
273 274 276 279 282 286 289 293 293 293 288 291 296 293 273 267 270 270 256 243 242 248 257 266 262 264 254 253 257 260 262 274 271 275 229 246 268 236 199 215 236 279 291 301 302 299 299 299 299 296 291 287 284 281
271 271 272 275 279 282 286 290 291 289 285 283 273 279 282 267 239 230 239 235 233 252 260 267 249 242 247 241 248 256 258 251 251 264 261 262 253 248 259 260 291 301 302 303 303 303 304 309 308 298 291 287 283 279
271 271 272 274 277 278 278 283 286 283 276 277 290 284 254 234 223 226 225 229 235 254 265 270 257 240 247 254 235 235 238 239 265 246 241 254 240 302 327 320 315 307 312 315 311 308 314 319 319 305 292 289 284 277
270 271 273 274 273 274 276 278 281 275 266 260 249 249 232 224 228 233 248 259 274 272 251 258 265 271 271 259 244 241 242 253 246 243 241 295 297 311 320 324 323 319 319 321 317 316 319 325 325 315 301 292 283 272
271 272 272 271 273 270 269 273 273 263 247 230 228 236 233 239 241 246 257 259 265 272 267 275 281 272 260 246 230 235 243 233 231 258 246 308 317 324 324 327 325 322 326 329 328 325 333 345 350 347 338 321 299 274
271 270 265 268 269 264 262 265 266 254 247 240 233 241 246 238 256 259 263 267 265 269 275 275 273 259 244 224 218 225 241 248 223 353 330 319 317 321 324 325 328 330 335 337 336 336 338 340 5 13 11 8 2 341
268 268 260 261 260 258 256 253 235 239 237 237 259 270 270 260 258 259 264 268 259 260 255 256 251 230 240 239 239 240 236 251 314 317 308 308 309 314 318 320 331 339 343 338 341 345 354 7 1 6 11 14 22 29
267 266 259 255 255 250 248 244 234 243 243 256 263 268 266 266 269 270 259 256 256 255 249 245 257 258 250 254 255 245 251 289 297 307 312 312 307 312 311 310 317 328 338 341 338 341 338 354 357 357 356 3 8 27
263 266 267 265 257 227 223 241 235 245 252 263 267 266 266 266 264 264 255 250 251 250 251 256 253 258 261 252 258 267 283 297 303 304 307 305 302 298 299 300 308 319 324 334 340 341 339 350 347 352 350 348 353 13
264 269 269 259 240 217 231 239 243 248 254 260 258 265 266 264 262 256 250 244 245 251 252 253 252 247 254 266 264 278 290 294 295 293 296 298 295 290 291 298 303 304 309 324 329 318 319 340 353 359 359 354 348 6
261 260 272 247 242 217 224 236 239 247 262 267 273 265 263 261 254 253 251 253 251 250 248 245 251 252 258 264 274 283 286 289 287 287 289 288 287 286 285 290 299 309 302 302 311 325 308 323 339 352 4 15 18 22
266 259 258 214 224 231 236 235 235 247 255 260 259 257 260 261 257 254 256 247 251 249 238 241 250 261 268 269 273 275 281 284 284 283 283 282 281 280 281 282 287 300 307 303 301 301 319 303 317 334 352 359 23 49
257 263 235 219 232 234 245 245 239 240 247 255 263 263 257 254 248 231 230 255 257 260 258 257 262 267 269 271 274 277 280 279 281 282 282 279 277 279 278 274 276 287 297 296 295 294 302 303 285 307 326 346 356 20
237 232 226 228 226 231 238 230 234 232 239 239 248 252 252 241 238 245 256 264 269 266 263 263 264 267 264 264 267 275 274 276 278 281 281 279 277 276 274 273 271 275 285 284 287 292 289 296 280 266 277 294 312 351
212 224 221 226 222 228 228 234 225 225 239 245 242 241 236 234 240 253 264 263 270 276 273 263 257 257 259 267 271 271 273 274 275 277 278 279 279 279 276 274 269 266 268 274 271 275 284 280 278 266 269 266 263 250
215 218 217 217 220 222 223 227 229 233 240 247 250 238 217 221 243 256 247 259 270 283 278 252 247 249 254 263 272 279 277 275 278 283 283 279 275 274 275 277 274 269 263 264 262 258 264 272 266 259 256 250 254 242
222 218 224 216 217 224 224 229 234 234 232 231 237 234 245 244 243 241 254 263 271 269 257 241 235 242 257 260 265 273 278 282 284 288 290 291 288 280 272 272 273 273 269 264 261 259 253 253 255 255 247 245 235 233
219 231 222 212 217 219 224 224 236 236 241 246 240 225 225 214 232 251 271 287 263 240 230 228 229 237 249 262 273 282 286 286 286 289 291 293 296 296 291 277 269 269 272 270 265 255 254 251 247 244 245 241 236 230
223 224 215 206 209 219 225 238 242 238 232 232 236 236 236 246 254 263 274 275 249 232 225 227 228 236 252 270 285 292 292 291 291 291 291 294 302 303 302 298 287 273 267 268 271 266 251 245 248 244 241 240 237 229
235 202 198 205 211 222 236 244 246 246 245 254 254 251 253 252 257 262 268 260 245 236 234 231 232 241 256 276 292 297 296 293 289 289 291 294 298 302 307 310 309 297 278 266 262 266 270 248 237 240 238 238 239 240
209 200 206 211 215 226 251 261 257 255 252 250 253 251 257 253 252 255 254 249 240 235 232 231 236 243 257 278 294 299 299 296 292 290 291 293 295 298 299 300 300 302 303 288 265 256 256 263 242 230 235 238 233 231
203 201 212 217 230 243 253 250 249 248 253 249 248 248 250 248 249 249 245 235 231 236 237 237 239 245 257 273 287 296 299 300 297 295 295 297 298 298 298 298 298 297 294 289 283 269 249 246 247 236 225 230 236 231
195 203 216 233 247 246 245 242 243 244 245 241 243 243 242 241 244 239 234 233 238 243 243 243 242 246 255 267 280 290 296 298 295 295 298 300 300 300 299 298 297 297 296 293 287 276 263 249 240 238 234 225 226 228
Height
2953 2952 2951 2950 2949 2949 2948 2946 2945 2943 2941 2939 2936 2935 2934 2932 2931 2929 2929 2931 2928 2922 2917 2920 2922 2920 2921 2922 2919 2917 2918 2914 2913 2911 2909 2909 2907 2906 2904 2901 2903 2903 2903 2903 2904 2908 2903 2892 2899 2903 2902 2900 2903 2904
2947 2946 2945 2943 2943 2942 2941 2940 2938 2936 2934 2932 2931 2929 2927 2925 2924 2922 2919 2922 2921 2916 2910 2912 2911 2911 2912 2913 2913 2911 2909 2909 2908 2904 2905 2905 2903 2899 2897 2893 2896 2896 2896 2895 2896 2889 2882 2884 2890 2894 2896 2896 2897 2897
2941 2940 2938 2937 2936 2935 2934 2933 2931 2930 2929 2926 2925 2923 2921 2919 2917 2915 2912 2913 2913 2909 2903 2901 2901 2905 2903 2904 2903 2902 2900 2900 2900 2902 2901 2897 2897 2896 2893 2891 2891 2890 2892 2888 2891 2876 2880 2885 2886 2890 2890 2891 2889 2892
2934 2933 2932 2931 2930 2929 2927 2926 2925 2924 2923 2920 2919 2917 2914 2912 2910 2908 2906 2907 2908 2905 2899 2894 2897 2895 2896 2896 2895 2895 2894 2895 2896 2896 2895 2891 2892 2891 2888 2888 2886 2888 2888 2885 2881 2876 2881 2881 2882 2885 2883 2882 2879 2881
2928 2927 2925 2924 2923 2922 2921 2920 2918 2918 2917 2914 2913 2911 2908 2906 2904 2902 2900 2901 2902 2904 2895 2890 2891 2893 2891 2890 2889 2890 2890 2890 2891 2890 2888 2887 2885 2886 2880 2880 2873 2880 2879 2879 2874 2878 2878 2875 2876 2875 2877 2878 2874 2874
2922 2921 2919 2918 2917 2916 2915 2914 2913 2912 2910 2909 2907 2905 2903 2900 2898 2896 2896 2898 2898 2898 2893 2889 2883 2884 2884 2883 2882 2883 2884 2884 2885 2883 2881 2879 2880 2881 2874 2869 2871 2872 2872 2869 2870 2871 2869 2868 2870 2869 2869 2869 2870 2870
2916 2915 2914 2913 2912 2910 2909 2908 2907 2906 2905 2903 2902 2899 2897 2895 2894 2893 2896 2896 2896 2893 2893 2888 2880 2877 2877 2878 2879 2879 2879 2878 2878 2875 2871 2870 2871 2874 2866 2861 2865 2867 2866 2866 2866 2865 2862 2862 2859 2860 2860 2859 2858 2856
2910 2909 2908 2907 2906 2904 2903 2902 2901 2900 2899 2898 2896 2894 2891 2890 2888 2888 2891 2892 2892 2889 2888 2884 2878 2877 2876 2875 2875 2874 2873 2872 2869 2867 2864 2863 2864 2863 2857 2856 2857 2859 2860 2856 2856 2855 2852 2850 2848 2848 2849 2847 2845 2842
2904 2903 2902 2901 2900 2899 2898 2897 2896 2894 2894 2892 2891 2888 2886 2885 2883 2885 2885 2885 2886 2887 2882 2876 2874 2873 2870 2870 2870 2869 2868 2865 2863 2859 2858 2859 2854 2852 2851 2854 2852 2851 2850 2848 2847 2846 2843 2840 2836 2835 2833 2830 2828 2823
2898 2897 2896 2895 2894 2893 2892 2891 2890 2889 2889 2887 2886 2884 2882 2881 2880 2881 2879 2879 2877 2875 2870 2865 2870 2867 2870 2867 2866 2865 2862 2861 2857 2854 2853 2850 2845 2846 2847 2850 2844 2845 2844 2842 2839 2836 2832 2828 2825 2820 2817 2815 2811 2808
2891 2890 2890 2889 2888 2887 2886 2886 2884 2884 2884 2883 2881 2880 2879 2878 2878 2878 2876 2873 2871 2866 2860 2858 2859 2858 2862 2861 2862 2861 2858 2857 2853 2851 2848 2844 2842 2840 2838 2839 2840 2841 2839 2835 2831 2826 2822 2816 2809 2803 2799 2797 2793 2790
2883 2882 2882 2882 2881 2880 2880 2880 2879 2878 2878 2878 2877 2875 2875 2874 2874 2874 2869 2867 2864 2861 2857 2855 2855 2856 2855 2856 2857 2857 2855 2853 2849 2846 2845 2841 2839 2838 2837 2837 2838 2835 2831 2827 2823 2816 2812 2807 2798 2787 2779 2775 2775 2772
2875 2875 2875 2875 2874 2874 2874 2874 2873 2872 2873 2873 2873 2870 2869 2869 2868 2865 2862 2860 2858 2856 2854 2854 2853 2852 2853 2853 2853 2853 2851 2848 2845 2843 2840 2839 2835 2834 2834 2833 2832 2828 2824 2819 2814 2809 2804 2796 2786 2775 2766 2764 2760 2759
2867 2867 2868 2867 2867 2867 2867 2867 2867 2867 2868 2868 2869 2867 2865 2861 2858 2856 2857 2856 2853 2851 2851 2850 2850 2851 2850 2850 2849 2848 2846 2844 2841 2838 2837 2833 2833 2832 2830 2827 2824 2820 2816 2811 2806 2802 2796 2786 2773 2764 2759 2754 2751 2749
2859 2860 2860 2859 2860 2860 2860 2860 2861 2861 2862 2864 2863 2858 2853 2853 2852 2852 2851 2850 2850 2848 2847 2847 2848 2847 2847 2846 2844 2844 2841 2838 2835 2833 2832 2831 2831 2828 2826 2822 2819 2815 2810 2806 2801 2797 2791 2781 2770 2762 2755 2749 2745 2741
2851 2854 2852 2853 2853 2853 2854 2854 2855 2856 2855 2856 2852 2847 2847 2847 2846 2847 2846 2845 2845 2843 2844 2844 2843 2842 2841 2840 2838 2836 2835 2832 2831 2830 2830 2829 2827 2825 2822 2819 2815 2811 2806 2802 2798 2793 2787 2780 2772 2764 2756 2750 2744 2737
2843 2845 2846 2845 2845 2847 2847 2849 2850 2849 2847 2843 2839 2839 2840 2839 2839 2840 2840 2840 2839 2839 2839 2840 2839 2836 2834 2832 2831 2829 2828 2828 2828 2829 2828 2825 2823 2821 2819 2816 2813 2809 2805 2800 2796 2792 2787 2780 2775 2769 2762 2755 2747 2740
2836 2837 2837 2837 2838 2839 2841 2842 2842 2839 2834 2833 2833 2833 2833 2833 2832 2832 2833 2834 2834 2834 2835 2835 2834 2831 2829 2827 2827 2825 2825 2826 2825 2824 2822 2821 2819 2817 2815 2813 2811 2808 2803 2799 2795 2791 2786 2782 2777 2771 2766 2759 2754 2747
2827 2828 2829 2831 2832 2833 2834 2834 2833 2828 2826 2827 2826 2826 2826 2825 2825 2826 2826 2827 2827 2827 2827 2828 2828 2825 2825 2821 2821 2821 2821 2821 2821 2820 2818 2816 2814 2813 2812 2810 2808 2805 2802 2799 2794 2791 2787 2783 2779 2774 2768 2764 2759 2755
2819 2820 2821 2822 2823 2825 2826 2825 2825 2821 2818 2820 2819 2818 2818 2817 2818 2818 2819 2820 2820 2820 2820 2819 2820 2818 2817 2818 2818 2817 2816 2816 2815 2815 2814 2812 2810 2809 2807 2806 2804 2802 2800 2797 2794 2791 2788 2784 2781 2777 2773 2768 2763 2760
2811 2813 2814 2815 2816 2817 2817 2816 2814 2813 2813 2812 2812 2812 2811 2810 2810 2810 2812 2813 2813 2812 2813 2814 2810 2812 2813 2813 2811 2811 2810 2810 2809 2808 2807 2807 2806 2804 2803 2801 2800 2798 2796 2794 2792 2789 2787 2785 2782 2779 2776 2772 2768 2765
2803 2804 2806 2808 2808 2809 2806 2805 2806 2807 2808 2806 2806 2806 2805 2805 2804 2804 2805 2805 2804 2805 2804 2804 2805 2806 2806 2805 2805 2804 2804 2803 2802 2801 2801 2800 2799 2798 2797 2796 2795 2794 2792 2790 2789 2787 2785 2784 2782 2780 2778 2776 2773 2770
2797 2799 2799 2800 2801 2799 2796 2799 2799 2801 2801 2800 2802 2801 2800 2800 2798 2798 2798 2798 2797 2796 2799 2799 2800 2800 2798 2799 2798 2797 2797 2796 2795 2794 2794 2793 2793 2792 2792 2790 2790 2790 2789 2787 2786 2785 2784 2782 2782 2781 2780 2778 2776 2774
2791 2792 2792 2792 2790 2789 2789 2790 2793 2794 2793 2794 2796 2795 2794 2793 2791 2793 2793 2792 2789 2792 2792 2792 2792 2792 2792 2792 2791 2792 2791 2791 2789 2789 2788 2788 2787 2787 2786 2785 2786 2785 2785 2784 2783 2782 2782 2781 2780 2780 2780 2779 2779 2777
2784 2784 2784 2780 2780 2781 2782 2783 2785 2788 2787 2788 2789 2788 2786 2787 2787 2788 2788 2786 2785 2785 2784 2785 2786 2786 2786 2785 2786 2786 2786 2785 2784 2784 2784 2783 2782 2782 2781 2780 2780 2780 2780 2780 2780 2779 2780 2779 2778 2778 2779 2779 2779 2779
2772 2772 2771 2771 2773 2775 2776 2777 2778 2780 2783 2784 2782 2781 2780 2782 2783 2782 2781 2779 2780 2779 2779 2779 2780 2781 2781 2781 2781 2781 2781 2780 2779 2778 2778 2777 2776 2776 2776 2776 2775 2775 2775 2775 2776 2776 2776 2776 2776 2776 2777 2778 2778 2779
2762 2761 2763 2764 2767 2769 2771 2773 2774 2775 2776 2776 2776 2776 2778 2778 2778 2775 2775 2775 2774 2774 2775 2775 2776 2776 2776 2777 2777 2777 2777 2776 2775 2774 2773 2772 2771 2770 2770 2770 2770 2770 2770 2770 2771 2771 2772 2773 2773 2774 2775 2775 2776 2778
2755 2756 2758 2760 2763 2765 2766 2768 2769 2770 2771 2770 2771 2771 2773 2772 2771 2772 2772 2771 2770 2770 2771 2772 2773 2774 2774 2774 2774 2773 2772 2772 2771 2770 2769 2768 2767 2766 2765 2765 2765 2765 2765 2765 2766 2766 2767 2768 2769 2770 2771 2772 2773 2775
2749 2752 2754 2755 2759 2760 2762 2764 2765 2764 2765 2766 2767 2766 2767 2768 2769 2769 2768 2768 2767 2768 2769 2770 2771 2771 2772 2771 2771 2770 2769 2768 2767 2767 2766 2765 2764 2764 2762 2761 2760 2760 2761 2761 2761 2761 2762 2763 2765 2766 2767 2769 2770 2772
2745 2747 2749 2751 2754 2756 2758 2759 2759 2760 2761 2762 2763 2763 2763 2764 2764 2764 2765 2764 2764 2765 2766 2767 2768 2768 2769 2768 2768 2767 2766 2765 2764 2764 2763 2762 2761 2760 2759 2758 2757 2756 2756 2756 2757 2757 2757 2758 2760 2761 2763 2764 2766 2768
2743 2744 2746 2748 2749 2751 2753 2754 2754 2755 2756 2756 2757 2757 2757 2759 2759 2759 2760 2760 2761 2763 2763 2764 2765 2766 2766 2765 2765 2764 2764 2763 2762 2761 2760 2759 2758 2757 2756 2756 2755 2754 2753 2752 2752 2753 2753 2754 2754 2756 2758 2759 2762 2764
2740 2742 2743 2744 2746 2748 2748 2749 2749 2750 2751 2751 2752 2753 2753 2754 2755 2755 2755 2757 2758 2759 2760 2761 2762 2762 2763 2762 2762 2761 2761 2760 2759 2758 2757 2756 2755 2754 2753 2752 2751 2750 2749 2749 2749 2748 2749 2750 2750 2751 2753 2756 2758 2760
2737 2739 2739 2740 2742 2743 2745 2746 2746 2747 2747 2747 2748 2749 2749 2750 2749 2752 2752 2753 2754 2755 2756 2757 2759 2759 2759 2759 2759 2759 2758 2757 2756 2755 2754 2752 2751 2750 2749 2748 2747 2746 2746 2745 2745 2745 2745 2745 2746 2747 2749 2751 2753 2756